Location: Jangalapalle
(16.8036°N, 80.6370°E)
Time: 11:36:57
(UTC+00:00)

NOSS 3-1 (A) - Pass Details

Date: 05 August 2024
Orbit: 655 x 1555 km, 63.4° (Epoch: 28 August)

Event Time Altitude Azimuth Distance (km) Brightness Sun altitude
Rises 22:18:58 0° 333° (NNW) 4,283 6.9 -27.2°
Reaches altitude 10° 22:21:39 10° 332° (NNW) 3,414 6.3 -26.7°
Maximum altitude 22:30:18 80° 247° (WSW) 1,525 4.3 -24.9°
Drops below altitude 10° 22:39:50 10° 161° (SSE) 3,732 6.4 -22.8°
Sets 22:42:54 0° 160° (SSE) 4,697 7.0 -22.2°
